+ View the NASA Portal
+ Center for Near-Earth Object Studies
IMPORTANT:
The SSD Announcement email list is now available. Major changes are coming in the near future, including possible hostname and/or URL changes. To be notified of such changes, subscribe to this email list.
Please visit
this page
for more details.
Don't show this message again
JPL Small-Body Database Browser
Search:
[
help
]
442159 (2010 VD203)
Classification:
Main-belt Asteroid
SPK-ID:
2442159
[
Ephemeris
|
Orbit Diagram
|
Orbital Elements
|
Mission Design
|
Physical Parameters
|
Discovery Circumstances
]
[ show orbit diagram ]
Orbital Elements at Epoch 2458600.5 (2019-Apr-27.0) TDB
Reference:
JPL 17
(heliocentric ecliptic J2000)
Element
Value
Uncertainty (1-sigma)
Units
e
.09228220652367126
1.0786e-07
a
3.092838930188692
4.325e-08
au
q
2.807424929288569
3.5284e-07
au
i
9.662337164921075
1.1466e-05
deg
node
352.0657194588974
3.3942e-05
deg
peri
32.31773393016915
5.7859e-05
deg
M
213.8609986499405
4.8741e-05
deg
t
p
2459406.988197748753
(2021-Jul-11.48819775)
0.00027871
TDB
period
1986.709560811111
5.44
4.1673e-05
1.141e-07
d
yr
n
.1812041413104305
3.8009e-09
deg/d
Q
3.378252931088816
4.7241e-08
au
Orbit Determination Parameters
# obs. used (total)
159
data-arc span
8524 days (23.34 yr)
first obs. used
1996-02-19
last obs. used
2019-06-22
planetary ephem.
DE431
SB-pert. ephem.
SB431-N16
condition code
0
norm. resid. RMS
.53345
source
ORB
producer
Otto Matic
solution date
2019-Sep-24 07:42:50
Additional Information
Earth MOID
= 1.81441 au
Jupiter MOID
= 2.1128 au
T_jup
= 3.196
[ show covariance matrix ]
[
Ephemeris
|
Orbit Diagram
|
Orbital Elements
|
Mission Design
|
Physical Parameters
|
Discovery Circumstances
]
Physical Parameter Table
Parameter
Symbol
Value
Units
Sigma
Reference
Notes
absolute magnitude
H
16.0
n/a
MPO437719
442159 (2010 VD203)
Discovered 2007-Feb-23 by Spacewatch at Kitt Peak
Reference:
Last Updated:
2015-09-02
Alternate Designations
2010 VD203
= 2007 DB89 = 2012 BD106
[
Ephemeris
|
Orbit Diagram
|
Orbital Elements
|
Mission Design
|
Physical Parameters
|
Discovery Circumstances
]
2019-Dec-14 08:37 UT
(server date/time)
Site Manager:
Ryan S. Park
Webmaster
:
Alan B. Chamberlin